User: anonymous   Login
Location: Coupvray
(48.8929°N, 2.7967°E)
Time: 18:02:29
(UTC+00:00)
Language:

Cosmos 724 - Orbit

View from above orbital plane
View from above orbital plane
View from above satellite
View from above satellite

Ground track
Ground track

The orbit data is extracted from the following two-line orbital elements,

1 07727U 75025A   21135.65165256 -.00000068  00000-0  13777-4 0  9994
2 07727  65.5894 204.5858 0068716 259.2248 100.1085 13.98930546355707
Epoch (UTC): 15 May 2021 15:38:22
Eccentricity: 0.0068716
inclination: 65.5894°
perigee height: 847 km
apogee height: 947 km
right ascension of ascending node: 204.5858°
argument of perigee: 259.2248°
revolutions per day: 13.98930546
mean anomaly at epoch: 100.1085°
orbit number at epoch: 35570

The dashed part of the orbit path shows where the satellite is in the earth's shadow,  

DLR